Central Park, NY

3:54 PM EDT on August 21, 2017 (GMT -0400)
Central Park

Weather History for KNYC - May, 2014

Change the Weather History Date:

Sunday, May 11, 2014

  Actual Average Record
Temperature  
Mean Temperature 71 °F 61 °F  
Max Temperature 82 °F 70 °F 92 °F (1993)
Min Temperature 60 °F 52 °F 36 °F (1913)
Degree Days  
Heating Degree Days 0 5  
Month to date heating degree days 37 70  
Since 1 July heating degree days 4926 4663  
Cooling Degree Days 6 1  
Month to date cooling degree days 11 11  
Year to date cooling degree days 15 23  
Growing Degree Days 21 (Base 50)    
Moisture  
Dew Point 43 °F    
Average Humidity 53    
Maximum Humidity 87    
Minimum Humidity 19    
Precipitation  
Precipitation 0.03 in 0.12 in 1.67 in (1981)
Month to date precipitation 1.07 1.40  
Year to date precipitation 20.86 17.00  
Snow  
Snow 0.00 in 0.00 in 0.00 in (2002)
Month to date snowfall 0.0 0.0  
Since 1 July snowfall 57.4 25.8  
Snow Depth 0.00 in    
Sea Level Pressure  
Sea Level Pressure 30.01 in    
Wind  
Wind Speed 3 mph (West)    
Max Wind Speed 13 mph    
Max Gust Speed 19 mph    
Visibility 10 miles    
Events Rain    
T = Trace of Precipitation, MM = Missing Value Source: NWS Daily Summary

Daily Weather History Graph

Daily Weather History Graph

Search for Another Location

Airport or City:

Trip Planner

Search our weather history database for the weather conditions in past years. The results will help you decide how hot, cold, wet, or windy it might be!

Date:

Astronomy

May. 11, 2014 Rise Set
Actual Time 5:42 AM EDT 8:02 PM EDT
Civil Twilight 5:12 AM EDT 8:33 PM EDT
Nautical Twilight 4:34 AM EDT 9:11 PM EDT
Astronomical Twilight 3:52 AM EDT 9:53 PM EDT
Moon 4:54 PM EDT (5/11) 3:47 AM EDT (5/11)
Length of Visible Light 15h 21m
Length of Day
14h 19m
Waxing Gibbous, 89% of the Moon is Illuminated
May 11
Waxing Gibbous
May 14
Full
May 21
Last Quarter
May 28
New
Jun 5
First Quarter

Hourly Weather History & Observations

Time (EDT) Temp. Dew Point Humidity Pressure Visibility Wind Dir Wind Speed Gust Speed Precip Events Conditions
12:51 AM 64.0 °F 60.1 °F 87% 29.88 in 6.0 mi WSW 5.8 mph - 0.05 in Rain Light Rain
1:51 AM 63.0 °F 60.1 °F 90% 29.87 in 10.0 mi Variable 3.5 mph - 0.02 in   Scattered Clouds
2:51 AM 63.0 °F 60.1 °F 90% 29.90 in 4.0 mi Variable 4.6 mph - 0.00 in Rain Rain
3:51 AM 63.0 °F 57.0 °F 81% 29.91 in 10.0 mi Variable 3.5 mph - 0.02 in   Partly Cloudy
4:51 AM 63.0 °F 48.9 °F 60% 29.94 in 10.0 mi Variable 5.8 mph - N/A   Clear
5:51 AM 61.0 °F 46.0 °F 58% 29.96 in 10.0 mi North - - N/A   Clear
6:51 AM 61.0 °F 42.1 °F 50% 30.00 in 10.0 mi West 5.8 mph - N/A   Clear
7:51 AM 63.0 °F 43.0 °F 48% 30.03 in 10.0 mi WNW 4.6 mph - N/A   Clear
8:51 AM 64.9 °F 42.1 °F 43% 30.05 in 10.0 mi Variable 3.5 mph - N/A   Clear
9:51 AM 68.0 °F 41.0 °F 37% 30.05 in 10.0 mi WNW 5.8 mph - N/A   Clear
10:51 AM 72.0 °F 39.9 °F 31% 30.04 in 10.0 mi North - - N/A   Clear
11:51 AM 73.9 °F 42.1 °F 32% 30.05 in 10.0 mi North - - N/A   Clear
12:51 PM 78.1 °F 41.0 °F 27% 30.05 in 10.0 mi Calm Calm - N/A   Clear
1:51 PM 78.1 °F 41.0 °F 27% 30.04 in 10.0 mi Calm Calm - N/A   Clear
2:51 PM 79.0 °F 37.9 °F 23% 30.02 in 10.0 mi Variable 6.9 mph - N/A   Clear
3:51 PM 81.0 °F 37.9 °F 21% 30.01 in 10.0 mi North - - N/A   Clear
4:51 PM 80.1 °F 37.0 °F 21% 30.00 in 10.0 mi West 8.1 mph - N/A   Clear
5:51 PM 80.1 °F 35.1 °F 20% 30.01 in 10.0 mi Variable 4.6 mph - N/A   Clear
6:51 PM 79.0 °F 34.0 °F 20% 30.01 in 10.0 mi Calm Calm - N/A   Clear
7:51 PM 77.0 °F 32.0 °F 19% 30.04 in 10.0 mi Calm Calm - N/A   Clear
8:51 PM 73.0 °F 34.0 °F 24% 30.06 in 10.0 mi Calm Calm - N/A   Clear
9:51 PM 73.9 °F 39.9 °F 29% 30.08 in 10.0 mi West 3.5 mph - N/A   Clear
10:51 PM 71.1 °F 41.0 °F 34% 30.07 in 10.0 mi Calm Calm - N/A   Clear
11:51 PM 71.1 °F 44.1 °F 38% 30.08 in 10.0 mi Calm Calm - N/A   Clear